DLH1835 LEMG-EDDM

Flight info

Callsign DLH1835
Flight time 2h 31m
Altitude 34000
Route RIXUR1H RIXUR DCT UNTOS DCT ROLAS DCT TOSGA DCT RESTU DCT ALT DCT SUMMO DCT MITOS DCT BRUNO/N0445F360 DCT RUXET DCT IZA DCT TUKRO DCT ASMOT DCT PTC DCT MHN DCT ISTER DCT NIVDA DCT OMEDA DCT RAPUR DCT TORTU DCT ERTEV DCT TAGIP DCT GUNGO DCT IVKAL T102 NINUR T101 BETOS BETOS1B
Aircraft A321/M-SDE3FGHIRWY/LB1

Departure

Time 2026-05-06 16:56
Airport Málaga-Costa del Sol Airport (LEMG)

Arrival

Time 2026-05-06 19:28
Airport Munich Airport (EDDM)
Time Latitude Longitude Altitude Speed Heading
2026-05-06 16:06 36.67764 -4.49613 42 ft 0 kts 41°
2026-05-06 16:47 36.67762 -4.49616 42 ft 1 kts 41°
2026-05-06 16:47 36.67756 -4.49622 68 ft 1 kts 41°
2026-05-06 16:47 36.67750 -4.49629 68 ft 1 kts 41°
2026-05-06 16:47 36.67744 -4.49636 69 ft 1 kts 41°
2026-05-06 16:48 36.67737 -4.49644 42 ft 2 kts 41°
2026-05-06 16:48 36.67729 -4.49652 38 ft 1 kts 41°
2026-05-06 16:48 36.67722 -4.49660 39 ft 1 kts 41°
2026-05-06 16:48 36.67715 -4.49667 39 ft 1 kts 73°
2026-05-06 16:49 36.67714 -4.49679 39 ft 1 kts 131°
2026-05-06 16:49 36.67717 -4.49683 39 ft 0 kts 131°
2026-05-06 16:51 36.67716 -4.49681 39 ft 1 kts 131°
2026-05-06 16:51 36.67709 -4.49671 38 ft 3 kts 131°
2026-05-06 16:51 36.67690 -4.49644 40 ft 5 kts 131°
2026-05-06 16:52 36.67654 -4.49596 42 ft 8 kts 139°
2026-05-06 16:52 36.67608 -4.49622 42 ft 10 kts 218°
2026-05-06 16:52 36.67559 -4.49684 43 ft 10 kts 257°
2026-05-06 16:52 36.67605 -4.49775 43 ft 16 kts 311°
2026-05-06 16:53 36.67680 -4.49880 43 ft 17 kts 312°
2026-05-06 16:53 36.67760 -4.49992 44 ft 18 kts 312°
2026-05-06 16:53 36.67848 -4.50115 44 ft 20 kts 311°
2026-05-06 16:53 36.67947 -4.50255 44 ft 24 kts 311°
2026-05-06 16:54 36.68059 -4.50412 44 ft 24 kts 311°
2026-05-06 16:54 36.68158 -4.50550 44 ft 21 kts 311°
2026-05-06 16:54 36.68256 -4.50687 45 ft 22 kts 312°
2026-05-06 16:54 36.68360 -4.50833 49 ft 23 kts 311°
2026-05-06 16:55 36.68463 -4.50977 52 ft 14 kts 311°
2026-05-06 16:55 36.68504 -4.51071 55 ft 12 kts 266°
2026-05-06 16:55 36.68434 -4.51132 53 ft 16 kts 192°
2026-05-06 16:55 36.68308 -4.51056 57 ft 40 kts 132°
2026-05-06 16:56 36.67963 -4.50571 53 ft 108 kts 131°
2026-05-06 16:56 36.67338 -4.49696 48 ft 160 kts 131°
2026-05-06 16:56 36.66578 -4.48623 581 ft 163 kts 132°
2026-05-06 16:56 36.65817 -4.47547 1170 ft 169 kts 133°
2026-05-06 16:57 36.65000 -4.46405 1531 ft 186 kts 134°
2026-05-06 16:57 36.64085 -4.45140 1768 ft 207 kts 133°
2026-05-06 16:57 36.63073 -4.43740 1934 ft 228 kts 133°
2026-05-06 16:57 36.61976 -4.42215 2170 ft 243 kts 133°
2026-05-06 16:58 36.60837 -4.40629 2702 ft 247 kts 132°
2026-05-06 16:58 36.59903 -4.38837 3265 ft 250 kts 107°
2026-05-06 16:58 36.59510 -4.36740 3829 ft 250 kts 99°
2026-05-06 16:58 36.59160 -4.34618 4439 ft 251 kts 99°
2026-05-06 16:59 36.58926 -4.33203 4819 ft 252 kts 99°
2026-05-06 16:59 36.58574 -4.31063 5391 ft 254 kts 99°
2026-05-06 16:59 36.58246 -4.28896 5937 ft 255 kts 93°
2026-05-06 16:59 36.58366 -4.26671 6242 ft 267 kts 69°
2026-05-06 17:00 36.59741 -4.24092 6691 ft 277 kts 39°
2026-05-06 17:00 36.61159 -4.22430 7264 ft 283 kts 39°
2026-05-06 17:00 36.62609 -4.20740 7863 ft 288 kts 40°
2026-05-06 17:00 36.63600 -4.19584 8261 ft 291 kts 40°
2026-05-06 17:01 36.65091 -4.17840 8881 ft 296 kts 40°
2026-05-06 17:01 36.66603 -4.16068 9493 ft 301 kts 40°
2026-05-06 17:01 36.68138 -4.14269 10085 ft 305 kts 40°
2026-05-06 17:01 36.69694 -4.12445 10669 ft 308 kts 40°
2026-05-06 17:02 36.71262 -4.10603 11253 ft 312 kts 40°
2026-05-06 17:02 36.72829 -4.08758 11822 ft 316 kts 40°
2026-05-06 17:02 36.74431 -4.06867 12423 ft 319 kts 40°
2026-05-06 17:02 36.76053 -4.04956 13020 ft 322 kts 40°
2026-05-06 17:03 36.77691 -4.03027 13625 ft 326 kts 40°
2026-05-06 17:03 36.79359 -4.01067 13979 ft 338 kts 40°
2026-05-06 17:03 36.81118 -3.98999 14106 ft 356 kts 40°
2026-05-06 17:03 36.82970 -3.96818 14229 ft 374 kts 40°
2026-05-06 17:04 36.84894 -3.94548 14460 ft 385 kts 40°
2026-05-06 17:04 36.86853 -3.92232 14863 ft 391 kts 40°
2026-05-06 17:04 36.88837 -3.89882 15346 ft 395 kts 40°
2026-05-06 17:04 36.90834 -3.87514 15851 ft 398 kts 40°
2026-05-06 17:05 36.92850 -3.85124 16353 ft 401 kts 40°
2026-05-06 17:05 36.94884 -3.82710 16846 ft 404 kts 40°
2026-05-06 17:05 36.96929 -3.80280 17336 ft 407 kts 40°
2026-05-06 17:05 36.98992 -3.77826 17834 ft 410 kts 40°
2026-05-06 17:06 37.01063 -3.75362 18297 ft 413 kts 40°
2026-05-06 17:06 37.03156 -3.72871 18679 ft 416 kts 40°
2026-05-06 17:06 37.05231 -3.70399 19054 ft 419 kts 40°
2026-05-06 17:06 37.07377 -3.67846 19449 ft 421 kts 40°
2026-05-06 17:07 37.09455 -3.65306 19840 ft 426 kts 45°
2026-05-06 17:07 37.11284 -3.62360 20225 ft 432 kts 55°
2026-05-06 17:07 37.12735 -3.59043 20607 ft 437 kts 62°
2026-05-06 17:07 37.14077 -3.55617 20979 ft 440 kts 62°
2026-05-06 17:08 37.15432 -3.52163 21350 ft 442 kts 62°
2026-05-06 17:08 37.16799 -3.48695 21727 ft 445 kts 62°
2026-05-06 17:08 37.18182 -3.45205 22106 ft 448 kts 62°
2026-05-06 17:08 37.19576 -3.41692 22474 ft 451 kts 62°
2026-05-06 17:09 37.20975 -3.38156 22832 ft 454 kts 62°
2026-05-06 17:09 37.22382 -3.34590 23195 ft 457 kts 62°
2026-05-06 17:09 37.23796 -3.31003 23544 ft 460 kts 62°
2026-05-06 17:09 37.25218 -3.27389 23845 ft 463 kts 62°
2026-05-06 17:10 37.26642 -3.23754 24126 ft 466 kts 62°
2026-05-06 17:10 37.28074 -3.20098 24416 ft 468 kts 62°
2026-05-06 17:10 37.29496 -3.16464 24701 ft 471 kts 62°
2026-05-06 17:10 37.30944 -3.12764 24976 ft 473 kts 62°
2026-05-06 17:11 37.32399 -3.09044 25268 ft 476 kts 62°
2026-05-06 17:11 37.33863 -3.05295 25555 ft 478 kts 62°
2026-05-06 17:11 37.35327 -3.01532 25834 ft 481 kts 62°
2026-05-06 17:11 37.36799 -2.97741 26098 ft 484 kts 62°
2026-05-06 17:12 37.38276 -2.93928 26387 ft 486 kts 62°
2026-05-06 17:12 37.39760 -2.90099 26663 ft 488 kts 63°
2026-05-06 17:12 37.41252 -2.86251 26941 ft 491 kts 62°
2026-05-06 17:12 37.42756 -2.82377 27203 ft 493 kts 62°
2026-05-06 17:13 37.44262 -2.78494 27464 ft 496 kts 63°
2026-05-06 17:13 37.45775 -2.74580 27710 ft 498 kts 63°
2026-05-06 17:13 37.47292 -2.70640 27972 ft 501 kts 63°
2026-05-06 17:13 37.48809 -2.66690 28239 ft 503 kts 63°
2026-05-06 17:14 37.50316 -2.62764 28497 ft 505 kts 63°
2026-05-06 17:14 37.51845 -2.58772 28747 ft 508 kts 63°
2026-05-06 17:14 37.53382 -2.54758 28990 ft 510 kts 63°
2026-05-06 17:14 37.54924 -2.50724 29201 ft 512 kts 63°
2026-05-06 17:15 37.56473 -2.46671 29435 ft 514 kts 63°
2026-05-06 17:15 37.58030 -2.42599 29633 ft 516 kts 63°
2026-05-06 17:15 37.59587 -2.38522 29864 ft 518 kts 63°
2026-05-06 17:15 37.61154 -2.34417 30052 ft 519 kts 63°
2026-05-06 17:16 37.62718 -2.30308 30312 ft 519 kts 63°
2026-05-06 17:16 37.64276 -2.26205 30521 ft 519 kts 63°
2026-05-06 17:16 37.65833 -2.22103 30771 ft 518 kts 63°
2026-05-06 17:16 37.67389 -2.18005 31004 ft 518 kts 63°
2026-05-06 17:17 37.68949 -2.13898 31210 ft 519 kts 63°
2026-05-06 17:17 37.70508 -2.09782 31426 ft 519 kts 63°
2026-05-06 17:17 37.72063 -2.05675 31668 ft 518 kts 63°
2026-05-06 17:17 37.73614 -2.01571 31922 ft 518 kts 63°
2026-05-06 17:18 37.75166 -1.97456 32162 ft 518 kts 64°
2026-05-06 17:18 37.76713 -1.93345 32396 ft 518 kts 64°
2026-05-06 17:18 37.78256 -1.89239 32621 ft 518 kts 64°
2026-05-06 17:18 37.79797 -1.85131 32843 ft 517 kts 64°
2026-05-06 17:19 37.81342 -1.81015 33083 ft 517 kts 64°
2026-05-06 17:19 37.82881 -1.76905 33312 ft 517 kts 64°
2026-05-06 17:19 37.84417 -1.72798 33546 ft 517 kts 64°
2026-05-06 17:19 37.85954 -1.68681 33723 ft 517 kts 64°
2026-05-06 17:20 37.87487 -1.64567 33880 ft 517 kts 64°
2026-05-06 17:20 37.90526 -1.56380 33916 ft 512 kts 64°
2026-05-06 17:21 37.93553 -1.48223 33915 ft 511 kts 64°
2026-05-06 17:21 37.96573 -1.40069 33921 ft 511 kts 64°
2026-05-06 17:22 37.99588 -1.31900 33919 ft 511 kts 64°
2026-05-06 17:22 38.02591 -1.23730 33921 ft 511 kts 64°
2026-05-06 17:23 38.05595 -1.15541 33934 ft 512 kts 64°
2026-05-06 17:23 38.08596 -1.07356 33935 ft 512 kts 64°
2026-05-06 17:24 38.11593 -0.99147 33939 ft 512 kts 64°
2026-05-06 17:24 38.14579 -0.90921 33945 ft 513 kts 64°
2026-05-06 17:25 38.17564 -0.82697 33957 ft 513 kts 64°
2026-05-06 17:25 38.20547 -0.74465 33962 ft 513 kts 64°
2026-05-06 17:26 38.23530 -0.66219 33970 ft 513 kts 64°
2026-05-06 17:26 38.26501 -0.57957 33968 ft 514 kts 65°
2026-05-06 17:27 38.29323 -0.49663 33961 ft 514 kts 67°
2026-05-06 17:27 38.31959 -0.41190 33960 ft 515 kts 68°
2026-05-06 17:28 38.34580 -0.32708 33959 ft 515 kts 68°
2026-05-06 17:28 38.37274 -0.24256 33952 ft 515 kts 67°
2026-05-06 17:29 38.40089 -0.15865 33951 ft 515 kts 66°
2026-05-06 17:29 38.42931 -0.07489 33943 ft 515 kts 66°
2026-05-06 17:30 38.45728 0.00917 34030 ft 515 kts 67°
2026-05-06 17:30 38.47091 0.05124 33913 ft 509 kts 68°
2026-05-06 17:30 38.48417 0.09288 33914 ft 506 kts 68°
2026-05-06 17:31 38.51058 0.17619 33908 ft 507 kts 68°
2026-05-06 17:31 38.53712 0.25961 33910 ft 508 kts 68°
2026-05-06 17:32 38.56387 0.34328 33914 ft 509 kts 68°
2026-05-06 17:32 38.59054 0.42700 33935 ft 509 kts 68°
2026-05-06 17:33 38.61715 0.51092 33940 ft 509 kts 68°
2026-05-06 17:33 38.64368 0.59491 33948 ft 509 kts 68°
2026-05-06 17:34 38.67012 0.67890 33949 ft 509 kts 68°
2026-05-06 17:34 38.69653 0.76301 33949 ft 509 kts 68°
2026-05-06 17:35 38.72289 0.84719 33949 ft 509 kts 68°
2026-05-06 17:35 38.74917 0.93138 33957 ft 509 kts 68°
2026-05-06 17:36 38.78844 1.05783 33958 ft 509 kts 68°
2026-05-06 17:36 38.81467 1.14217 33965 ft 509 kts 68°
2026-05-06 17:37 38.84076 1.22665 33966 ft 509 kts 69°
2026-05-06 17:37 38.86677 1.31118 33971 ft 510 kts 68°
2026-05-06 17:38 38.89278 1.39577 33967 ft 510 kts 69°
2026-05-06 17:38 38.91866 1.48048 33967 ft 510 kts 69°
2026-05-06 17:39 38.94402 1.56546 33960 ft 510 kts 70°
2026-05-06 17:39 38.96891 1.65080 33952 ft 510 kts 70°
2026-05-06 17:40 38.99378 1.73611 33953 ft 510 kts 69°
2026-05-06 17:40 39.01880 1.82148 33948 ft 510 kts 69°
2026-05-06 17:41 39.04378 1.90678 33953 ft 510 kts 69°
2026-05-06 17:41 39.06868 1.99211 33952 ft 510 kts 70°
2026-05-06 17:42 39.09341 2.07767 33954 ft 510 kts 70°
2026-05-06 17:42 39.11809 2.16325 33954 ft 510 kts 70°
2026-05-06 17:43 39.14280 2.24883 33953 ft 510 kts 70°
2026-05-06 17:43 39.16743 2.33452 33957 ft 510 kts 70°
2026-05-06 17:44 39.19197 2.42026 33960 ft 510 kts 70°
2026-05-06 17:44 39.21650 2.50614 33962 ft 510 kts 70°
2026-05-06 17:45 39.24092 2.59209 33961 ft 511 kts 70°
2026-05-06 17:45 39.26533 2.67809 33961 ft 510 kts 70°
2026-05-06 17:46 39.28961 2.76414 33963 ft 510 kts 70°
2026-05-06 17:46 39.31387 2.85031 33964 ft 510 kts 70°
2026-05-06 17:47 39.33401 2.92192 33964 ft 511 kts 70°
2026-05-06 17:47 39.35818 3.00819 33963 ft 511 kts 70°
2026-05-06 17:48 39.38234 3.09454 33968 ft 511 kts 70°
2026-05-06 17:48 39.40639 3.18096 33967 ft 511 kts 70°
2026-05-06 17:49 39.43235 3.26634 33969 ft 509 kts 61°
2026-05-06 17:49 39.46821 3.34517 33965 ft 508 kts 57°
2026-05-06 17:50 39.50442 3.42372 33968 ft 508 kts 57°
2026-05-06 17:50 39.54040 3.50234 33968 ft 508 kts 57°
2026-05-06 17:51 39.57639 3.58110 33968 ft 507 kts 58°
2026-05-06 17:51 39.61229 3.65979 33969 ft 507 kts 58°
2026-05-06 17:52 39.64816 3.73864 33966 ft 507 kts 58°
2026-05-06 17:52 39.68399 3.81760 33968 ft 507 kts 58°
2026-05-06 17:53 39.71972 3.89641 33972 ft 507 kts 58°
2026-05-06 17:53 39.75549 3.97548 33978 ft 507 kts 58°
2026-05-06 17:54 39.79113 4.05453 33983 ft 506 kts 58°
2026-05-06 17:54 39.82658 4.13366 33987 ft 506 kts 58°
2026-05-06 17:55 39.86204 4.21285 33994 ft 507 kts 58°
2026-05-06 17:55 39.89759 4.29203 33993 ft 507 kts 58°
2026-05-06 17:56 39.93314 4.37129 33990 ft 506 kts 58°
2026-05-06 17:56 39.96860 4.45053 33985 ft 506 kts 58°
2026-05-06 17:57 40.00399 4.52992 33978 ft 506 kts 58°
2026-05-06 17:57 40.03927 4.60934 33978 ft 506 kts 58°
2026-05-06 17:58 40.07721 4.68638 33974 ft 503 kts 47°
2026-05-06 17:58 40.12209 4.75639 33973 ft 502 kts 47°
2026-05-06 17:59 40.16675 4.82663 33973 ft 503 kts 48°
2026-05-06 17:59 40.21140 4.89702 33976 ft 503 kts 48°
2026-05-06 18:00 40.25604 4.96741 33978 ft 503 kts 48°
2026-05-06 18:00 40.30061 5.03788 33979 ft 503 kts 48°
2026-05-06 18:01 40.34514 5.10857 33977 ft 503 kts 48°
2026-05-06 18:01 40.38959 5.17929 33977 ft 503 kts 48°
2026-05-06 18:02 40.43408 5.25013 33978 ft 503 kts 48°
2026-05-06 18:02 40.47841 5.32101 33979 ft 503 kts 49°
2026-05-06 18:03 40.52278 5.39205 33979 ft 502 kts 49°
2026-05-06 18:03 40.56715 5.46303 33981 ft 502 kts 49°
2026-05-06 18:04 40.61151 5.53424 34088 ft 505 kts 49°
2026-05-06 18:04 40.63374 5.57007 34277 ft 505 kts 49°
2026-05-06 18:04 40.65596 5.60596 34481 ft 505 kts 49°
2026-05-06 18:05 40.67816 5.64183 34675 ft 506 kts 49°
2026-05-06 18:05 40.70043 5.67775 34873 ft 506 kts 49°
2026-05-06 18:05 40.72266 5.71362 35072 ft 506 kts 49°
2026-05-06 18:05 40.74489 5.74960 35277 ft 506 kts 49°
2026-05-06 18:06 40.76705 5.78559 35486 ft 505 kts 49°
2026-05-06 18:06 40.78916 5.82157 35688 ft 505 kts 49°
2026-05-06 18:06 40.81128 5.85759 35886 ft 505 kts 49°
2026-05-06 18:06 40.83341 5.89362 35961 ft 506 kts 49°
2026-05-06 18:07 40.87777 5.96579 35960 ft 505 kts 49°
2026-05-06 18:07 40.92199 6.03794 35964 ft 505 kts 49°
2026-05-06 18:08 40.96616 6.11034 35965 ft 505 kts 50°
2026-05-06 18:08 41.01023 6.18281 35961 ft 506 kts 50°
2026-05-06 18:09 41.05435 6.25544 35968 ft 506 kts 50°
2026-05-06 18:09 41.09845 6.32815 35975 ft 506 kts 50°
2026-05-06 18:10 41.14257 6.40112 35973 ft 507 kts 50°
2026-05-06 18:10 41.18664 6.47414 35976 ft 507 kts 50°
2026-05-06 18:11 41.23068 6.54726 35978 ft 507 kts 50°
2026-05-06 18:11 41.27492 6.62020 35978 ft 507 kts 49°
2026-05-06 18:12 41.31993 6.69230 35976 ft 507 kts 49°
2026-05-06 18:12 41.36509 6.76430 35979 ft 507 kts 49°
2026-05-06 18:13 41.41005 6.83675 35979 ft 507 kts 49°
2026-05-06 18:13 41.45478 6.90945 35979 ft 508 kts 49°
2026-05-06 18:14 41.49955 6.98241 35975 ft 508 kts 49°
2026-05-06 18:14 41.54436 7.05538 35977 ft 508 kts 49°
2026-05-06 18:15 41.58918 7.12825 35981 ft 508 kts 49°
2026-05-06 18:15 41.63391 7.20135 35981 ft 508 kts 50°
2026-05-06 18:16 41.67852 7.27468 35979 ft 508 kts 50°
2026-05-06 18:16 41.72313 7.34806 35982 ft 508 kts 50°
2026-05-06 18:17 41.76768 7.42148 35983 ft 508 kts 50°
2026-05-06 18:17 41.81218 7.49498 35980 ft 508 kts 50°
2026-05-06 18:18 41.85663 7.56856 35981 ft 508 kts 50°
2026-05-06 18:18 41.90106 7.64219 35980 ft 507 kts 50°
2026-05-06 18:19 41.94537 7.71590 35980 ft 507 kts 50°
2026-05-06 18:19 41.98961 7.78971 35972 ft 507 kts 51°
2026-05-06 18:20 42.03378 7.86362 35973 ft 507 kts 51°
2026-05-06 18:20 42.07786 7.93762 35972 ft 507 kts 51°
2026-05-06 18:21 42.12200 8.01168 35968 ft 507 kts 51°
2026-05-06 18:21 42.16612 8.08581 35965 ft 507 kts 51°
2026-05-06 18:22 42.21010 8.16019 35969 ft 507 kts 51°
2026-05-06 18:22 42.25398 8.23463 35962 ft 507 kts 51°
2026-05-06 18:23 42.29820 8.30879 35965 ft 507 kts 47°
2026-05-06 18:23 42.35181 8.36960 35956 ft 502 kts 28°
2026-05-06 18:24 42.41457 8.40935 35956 ft 497 kts 18°
2026-05-06 18:24 42.47870 8.44475 35957 ft 498 kts 18°
2026-05-06 18:25 42.54288 8.48057 35958 ft 499 kts 18°
2026-05-06 18:25 42.60710 8.51641 35959 ft 499 kts 18°
2026-05-06 18:26 42.67139 8.55233 35958 ft 500 kts 18°
2026-05-06 18:26 42.73575 8.58842 35954 ft 500 kts 18°
2026-05-06 18:27 42.80019 8.62453 35952 ft 501 kts 18°
2026-05-06 18:27 42.86462 8.66083 35948 ft 501 kts 19°
2026-05-06 18:28 42.91860 8.69133 35949 ft 502 kts 19°
2026-05-06 18:28 42.98316 8.72774 35941 ft 502 kts 18°
2026-05-06 18:29 43.04773 8.76413 35946 ft 502 kts 18°
2026-05-06 18:29 43.11228 8.80066 35939 ft 502 kts 19°
2026-05-06 18:30 43.17683 8.83741 35945 ft 503 kts 19°
2026-05-06 18:30 43.24103 8.87403 35946 ft 503 kts 19°
2026-05-06 18:31 43.30564 8.91105 35938 ft 503 kts 19°
2026-05-06 18:31 43.37083 8.94565 35946 ft 499 kts 10°
2026-05-06 18:32 43.43859 8.95844 35949 ft 486 kts 353°
2026-05-06 18:32 43.50621 8.95815 35942 ft 487 kts 353°
2026-05-06 18:33 43.57405 8.96123 35934 ft 496 kts
2026-05-06 18:33 43.60700 8.97634 35937 ft 503 kts 20°
2026-05-06 18:33 43.63921 8.99517 35934 ft 500 kts 13°
2026-05-06 18:34 43.70597 9.02035 35923 ft 498 kts 10°
2026-05-06 18:34 43.77117 9.05391 35915 ft 505 kts 24°
2026-05-06 18:35 43.83350 9.09893 35919 ft 506 kts 25°
2026-05-06 18:35 43.89576 9.14472 35921 ft 506 kts 25°
2026-05-06 18:36 43.95799 9.19037 35930 ft 506 kts 25°
2026-05-06 18:36 44.02030 9.23587 35932 ft 506 kts 25°
2026-05-06 18:37 44.08254 9.28138 35936 ft 505 kts 25°
2026-05-06 18:37 44.14463 9.32698 35941 ft 504 kts 25°
2026-05-06 18:38 44.20669 9.37259 35941 ft 504 kts 25°
2026-05-06 18:38 44.26869 9.41830 35937 ft 504 kts 25°
2026-05-06 18:39 44.33064 9.46417 35939 ft 504 kts 25°
2026-05-06 18:40 44.42359 9.53315 35927 ft 505 kts 25°
2026-05-06 18:40 44.48561 9.57927 35920 ft 505 kts 25°
2026-05-06 18:41 44.54771 9.62562 35916 ft 506 kts 25°
2026-05-06 18:41 44.60990 9.67213 35894 ft 507 kts 25°
2026-05-06 18:42 44.67219 9.71877 35885 ft 508 kts 26°
2026-05-06 18:42 44.73456 9.76562 35885 ft 508 kts 25°
2026-05-06 18:43 44.79685 9.81259 35889 ft 508 kts 25°
2026-05-06 18:43 44.82805 9.83618 35747 ft 508 kts 26°
2026-05-06 18:43 44.85914 9.85971 35500 ft 507 kts 25°
2026-05-06 18:43 44.89026 9.88330 35247 ft 508 kts 25°
2026-05-06 18:44 44.92143 9.90689 35000 ft 509 kts 25°
2026-05-06 18:44 44.95269 9.93055 34760 ft 510 kts 25°
2026-05-06 18:44 44.98404 9.95429 34518 ft 512 kts 26°
2026-05-06 18:44 45.01538 9.97813 34269 ft 513 kts 26°
2026-05-06 18:45 45.04687 10.00207 34040 ft 514 kts 26°
2026-05-06 18:45 45.07839 10.02604 33822 ft 515 kts 26°
2026-05-06 18:45 45.10997 10.05010 33865 ft 517 kts 26°
2026-05-06 18:46 45.17320 10.09857 33852 ft 518 kts 26°
2026-05-06 18:46 45.23659 10.14731 33849 ft 518 kts 26°
2026-05-06 18:47 45.29999 10.19603 33844 ft 518 kts 26°
2026-05-06 18:47 45.36338 10.24482 33842 ft 519 kts 26°
2026-05-06 18:48 45.42689 10.29385 33839 ft 520 kts 26°
2026-05-06 18:48 45.49048 10.34306 33893 ft 521 kts 26°
2026-05-06 18:49 45.55413 10.39255 33890 ft 522 kts 26°
2026-05-06 18:49 45.61814 10.44143 33891 ft 520 kts 19°
2026-05-06 18:50 45.68599 10.47625 33902 ft 517 kts 15°
2026-05-06 18:50 45.75399 10.50986 33926 ft 518 kts 15°
2026-05-06 18:51 45.82220 10.54357 33931 ft 519 kts 15°
2026-05-06 18:51 45.89034 10.57759 33944 ft 518 kts 15°
2026-05-06 18:52 45.95821 10.61175 33953 ft 516 kts 15°
2026-05-06 18:52 46.02592 10.64577 33956 ft 514 kts 15°
2026-05-06 18:53 46.09344 10.67973 33958 ft 514 kts 15°
2026-05-06 18:53 46.16083 10.71368 33964 ft 513 kts 16°
2026-05-06 18:54 46.22817 10.74765 33973 ft 512 kts 15°
2026-05-06 18:54 46.29538 10.78170 33965 ft 511 kts 16°
2026-05-06 18:55 46.36247 10.81585 33854 ft 511 kts 16°
2026-05-06 18:55 46.39593 10.83287 33572 ft 509 kts 16°
2026-05-06 18:55 46.42930 10.84988 33298 ft 507 kts 16°
2026-05-06 18:55 46.46249 10.86684 32950 ft 504 kts 16°
2026-05-06 18:56 46.49551 10.88374 32595 ft 502 kts 16°
2026-05-06 18:56 46.52835 10.90058 32246 ft 499 kts 15°
2026-05-06 18:56 46.56101 10.91734 31912 ft 497 kts 16°
2026-05-06 18:56 46.59356 10.93404 31554 ft 495 kts 15°
2026-05-06 18:57 46.62593 10.95062 31219 ft 492 kts 16°
2026-05-06 18:57 46.65846 10.96728 30870 ft 490 kts 15°
2026-05-06 18:57 46.69026 10.98363 30626 ft 489 kts 16°
2026-05-06 18:57 46.72229 11.00016 30374 ft 488 kts 16°
2026-05-06 18:58 46.75436 11.01621 30110 ft 485 kts 12°
2026-05-06 18:58 46.78699 11.02653 29896 ft 477 kts
2026-05-06 18:58 46.81973 11.02972 29900 ft 469 kts 353°
2026-05-06 18:59 46.88383 11.02038 29888 ft 462 kts 345°
2026-05-06 18:59 46.94792 11.01053 29731 ft 469 kts 354°
2026-05-06 18:59 46.98056 11.01376 29292 ft 471 kts
2026-05-06 19:00 47.01300 11.01893 28839 ft 466 kts
2026-05-06 19:00 47.04512 11.02399 28384 ft 462 kts
2026-05-06 19:00 47.07691 11.02892 27949 ft 457 kts
2026-05-06 19:00 47.09781 11.03211 27658 ft 454 kts
2026-05-06 19:01 47.13957 11.03843 27057 ft 448 kts
2026-05-06 19:01 47.17045 11.04306 26591 ft 444 kts
2026-05-06 19:01 47.20103 11.04767 26131 ft 440 kts
2026-05-06 19:01 47.23137 11.05229 25674 ft 435 kts
2026-05-06 19:02 47.26132 11.05685 25218 ft 430 kts
2026-05-06 19:02 47.29087 11.06135 24756 ft 426 kts
2026-05-06 19:02 47.32039 11.06582 24148 ft 426 kts
2026-05-06 19:02 47.34990 11.07027 23563 ft 426 kts
2026-05-06 19:03 47.37939 11.07475 22908 ft 425 kts
2026-05-06 19:03 47.40872 11.07925 22226 ft 423 kts
2026-05-06 19:03 47.43749 11.08370 21494 ft 407 kts
2026-05-06 19:03 47.46515 11.08803 20775 ft 394 kts
2026-05-06 19:04 47.49218 11.09228 20066 ft 388 kts
2026-05-06 19:04 47.51876 11.09642 19587 ft 382 kts
2026-05-06 19:04 47.54514 11.10103 19347 ft 382 kts
2026-05-06 19:04 47.57080 11.11123 19122 ft 383 kts 20°
2026-05-06 19:05 47.59477 11.12795 18881 ft 381 kts 31°
2026-05-06 19:05 47.61755 11.14784 18647 ft 379 kts 31°
2026-05-06 19:05 47.64028 11.16759 18413 ft 378 kts 31°
2026-05-06 19:05 47.66298 11.18725 18161 ft 377 kts 31°
2026-05-06 19:06 47.68555 11.20682 17763 ft 374 kts 31°
2026-05-06 19:06 47.70795 11.22627 17368 ft 372 kts 31°
2026-05-06 19:06 47.73027 11.24550 16960 ft 370 kts 28°
2026-05-06 19:06 47.75388 11.26070 16571 ft 368 kts 20°
2026-05-06 19:07 47.77782 11.27396 16183 ft 366 kts 20°
2026-05-06 19:07 47.79356 11.28267 15931 ft 365 kts 19°
2026-05-06 19:07 47.82531 11.30026 15449 ft 363 kts 19°
2026-05-06 19:07 47.84898 11.31339 15199 ft 362 kts 19°
2026-05-06 19:08 47.86457 11.32209 15030 ft 361 kts 20°
2026-05-06 19:08 47.88792 11.33572 14874 ft 360 kts 21°
2026-05-06 19:08 47.91107 11.34991 14817 ft 357 kts 21°
2026-05-06 19:08 47.93358 11.36407 14629 ft 346 kts 22°
2026-05-06 19:09 47.95543 11.37792 14384 ft 338 kts 22°
2026-05-06 19:09 47.97692 11.39152 14152 ft 334 kts 21°
2026-05-06 19:09 47.99825 11.40491 13910 ft 332 kts 21°
2026-05-06 19:09 48.01957 11.41824 13603 ft 331 kts 21°
2026-05-06 19:10 48.04077 11.43143 13225 ft 329 kts 21°
2026-05-06 19:10 48.06187 11.44457 12865 ft 327 kts 21°
2026-05-06 19:10 48.08280 11.45762 12492 ft 325 kts 21°
2026-05-06 19:10 48.10361 11.47064 12121 ft 324 kts 20°
2026-05-06 19:11 48.12430 11.48363 11758 ft 322 kts 20°
2026-05-06 19:11 48.14486 11.49655 11359 ft 320 kts 20°
2026-05-06 19:11 48.16539 11.50948 10953 ft 319 kts 20°
2026-05-06 19:11 48.18563 11.52266 10559 ft 317 kts 25°
2026-05-06 19:12 48.20419 11.54044 10190 ft 317 kts 38°
2026-05-06 19:12 48.21998 11.56333 9889 ft 316 kts 50°
2026-05-06 19:12 48.23251 11.59028 9631 ft 315 kts 62°
2026-05-06 19:12 48.24123 11.61999 9364 ft 308 kts 74°
2026-05-06 19:13 48.24587 11.65080 9100 ft 299 kts 85°
2026-05-06 19:13 48.24820 11.68144 8832 ft 293 kts 85°
2026-05-06 19:13 48.25048 11.71100 8524 ft 285 kts 85°
2026-05-06 19:13 48.25274 11.74006 8216 ft 276 kts 85°
2026-05-06 19:14 48.25495 11.76850 7976 ft 274 kts 85°
2026-05-06 19:14 48.25713 11.79679 7958 ft 272 kts 85°
2026-05-06 19:14 48.25929 11.82513 8085 ft 274 kts 85°
2026-05-06 19:14 48.26145 11.85364 8035 ft 274 kts 85°
2026-05-06 19:15 48.26363 11.88207 7920 ft 276 kts 85°
2026-05-06 19:15 48.26580 11.91057 7623 ft 274 kts 84°
2026-05-06 19:15 48.26794 11.93894 7323 ft 272 kts 84°
2026-05-06 19:15 48.27007 11.96713 7027 ft 271 kts 84°
2026-05-06 19:16 48.27217 11.99514 6764 ft 270 kts 83°
2026-05-06 19:16 48.27427 12.02311 6520 ft 271 kts 83°
2026-05-06 19:16 48.27636 12.05121 6278 ft 270 kts 83°
2026-05-06 19:16 48.27843 12.07914 6107 ft 269 kts 83°
2026-05-06 19:17 48.28049 12.10711 5999 ft 269 kts 83°
2026-05-06 19:17 48.28254 12.13501 6011 ft 270 kts 83°
2026-05-06 19:17 48.28454 12.16245 6008 ft 260 kts 83°
2026-05-06 19:17 48.28652 12.18940 6014 ft 259 kts 83°
2026-05-06 19:18 48.28851 12.21635 6011 ft 260 kts 84°
2026-05-06 19:18 48.29049 12.24332 6012 ft 260 kts 84°
2026-05-06 19:18 48.29303 12.27015 6017 ft 259 kts 72°
2026-05-06 19:18 48.30177 12.29316 6012 ft 252 kts 39°
2026-05-06 19:19 48.31631 12.30594 6015 ft 239 kts
2026-05-06 19:19 48.33219 12.30546 6014 ft 223 kts 333°
2026-05-06 19:19 48.34431 12.29275 6030 ft 208 kts 302°
2026-05-06 19:19 48.35188 12.27550 6016 ft 187 kts 295°
2026-05-06 19:20 48.35812 12.25958 6016 ft 169 kts 295°
2026-05-06 19:20 48.36397 12.24458 6014 ft 165 kts 295°
2026-05-06 19:20 48.36975 12.22974 6010 ft 164 kts 295°
2026-05-06 19:20 48.37422 12.21474 6003 ft 151 kts 278°
2026-05-06 19:21 48.37420 12.19925 6008 ft 148 kts 263°
2026-05-06 19:21 48.37307 12.18381 6008 ft 149 kts 263°
2026-05-06 19:21 48.37196 12.16857 6011 ft 148 kts 263°
2026-05-06 19:21 48.37081 12.15297 5983 ft 148 kts 263°
2026-05-06 19:22 48.36969 12.13760 5845 ft 147 kts 263°
2026-05-06 19:22 48.36857 12.12241 5679 ft 146 kts 264°
2026-05-06 19:22 48.36748 12.10753 5503 ft 145 kts 264°
2026-05-06 19:22 48.36637 12.09239 5307 ft 145 kts 264°
2026-05-06 19:23 48.36525 12.07729 5118 ft 146 kts 264°
2026-05-06 19:23 48.36414 12.06223 4949 ft 145 kts 265°
2026-05-06 19:23 48.36303 12.04724 4741 ft 144 kts 265°
2026-05-06 19:23 48.36192 12.03229 4544 ft 144 kts 265°
2026-05-06 19:24 48.36081 12.01737 4347 ft 143 kts 265°
2026-05-06 19:24 48.35970 12.00257 4152 ft 142 kts 265°
2026-05-06 19:24 48.35860 11.98781 3958 ft 142 kts 265°
2026-05-06 19:24 48.35750 11.97305 3770 ft 142 kts 265°
2026-05-06 19:25 48.35640 11.95827 3579 ft 142 kts 265°
2026-05-06 19:25 48.35529 11.94358 3391 ft 141 kts 265°
2026-05-06 19:25 48.35419 11.92896 3205 ft 140 kts 265°
2026-05-06 19:25 48.35310 11.91440 3012 ft 140 kts 265°
2026-05-06 19:26 48.35200 11.89984 2827 ft 141 kts 264°
2026-05-06 19:26 48.35094 11.88583 2632 ft 129 kts 264°
2026-05-06 19:26 48.34994 11.87263 2447 ft 126 kts 264°
2026-05-06 19:26 48.34895 11.85947 2257 ft 127 kts 263°
2026-05-06 19:27 48.34805 11.84617 2110 ft 127 kts 262°
2026-05-06 19:27 48.34695 11.83301 1891 ft 127 kts 262°
2026-05-06 19:27 48.34596 11.81985 1734 ft 128 kts 261°
2026-05-06 19:27 48.34500 11.80687 1542 ft 126 kts 262°
2026-05-06 19:28 48.34405 11.79470 1475 ft 102 kts 263°
2026-05-06 19:28 48.34336 11.78579 1475 ft 72 kts 263°
2026-05-06 19:28 48.34307 11.78144 1475 ft 28 kts 271°
2026-05-06 19:28 48.34351 11.77870 1478 ft 27 kts 292°
2026-05-06 19:29 48.34423 11.77620 1474 ft 26 kts 293°
2026-05-06 19:29 48.34501 11.77449 1458 ft 18 kts 336°
2026-05-06 19:29 48.34612 11.77434 1483 ft 13 kts 23°
2026-05-06 19:29 48.34638 11.77568 1485 ft 15 kts 83°
2026-05-06 19:30 48.34651 11.77733 1478 ft 17 kts 83°
2026-05-06 19:30 48.34665 11.77921 1485 ft 20 kts 83°
2026-05-06 19:30 48.34682 11.78138 1473 ft 22 kts 83°
2026-05-06 19:30 48.34699 11.78369 1475 ft 23 kts 83°
2026-05-06 19:31 48.34716 11.78583 1485 ft 17 kts 83°
2026-05-06 19:31 48.34730 11.78769 1485 ft 19 kts 83°
2026-05-06 19:31 48.34763 11.79191 1485 ft 22 kts 83°
2026-05-06 19:32 48.34781 11.79420 1486 ft 14 kts 83°
2026-05-06 19:32 48.34805 11.79551 1475 ft 11 kts 33°
2026-05-06 19:32 48.34875 11.79554 1478 ft 7 kts 354°
2026-05-06 19:32 48.34892 11.79551 1480 ft 0 kts 354°
2026-05-06 19:33 48.34920 11.79547 1480 ft 9 kts 353°
2026-05-06 19:33 48.34993 11.79534 1479 ft 12 kts 353°
2026-05-06 19:34 48.35077 11.79543 1473 ft 13 kts 37°
2026-05-06 19:34 48.35099 11.79682 1477 ft 15 kts 83°
2026-05-06 19:34 48.35111 11.79832 1485 ft 12 kts 83°
2026-05-06 19:34 48.35121 11.79962 1483 ft 13 kts 83°
2026-05-06 19:35 48.35132 11.80109 1482 ft 11 kts 83°
2026-05-06 19:35 48.35171 11.80189 1475 ft 12 kts
2026-05-06 19:35 48.35267 11.80176 1483 ft 15 kts 353°
2026-05-06 19:35 48.35368 11.80158 1483 ft 13 kts 353°
2026-05-06 19:36 48.35452 11.80133 1482 ft 7 kts 353°
2026-05-06 19:36 48.35470 11.80081 1482 ft 8 kts 265°
2026-05-06 19:36 48.35466 11.80023 1485 ft 2 kts 263°
2026-05-06 19:36 48.35466 11.80019 1485 ft 0 kts 263°